W1HS Weather Reports


Display with metric or nautical units.
time (UTC)temp
F
wind
direction
speed
MPH
gust
MPH
rain 1hr
in
rain 24hr
in
rain mn
in
humidity
%
barometer
mb
20260508054018 41 0.0 0.0 0.00 0.00 0.00 59 987.8
20260508053018 41 0.0 0.0 0.00 0.00 0.00 59 988.0
20260508052125 42 0.0 0.0 0.00 0.00 0.00 57 988.2
20260508051019 42 293 2.0 2.0 0.00 0.00 0.00 57 988.4
20260508050019 41 293 1.0 2.0 0.00 0.00 0.00 59 988.4
20260508045028 41 0.0 0.0 0.00 0.00 0.00 58 988.3
20260508044019 42 0.0 0.0 0.00 0.00 0.00 58 988.3
20260508043019 43 0.0 0.0 0.00 0.00 0.00 56 988.4
20260508042023 43 293 1.0 2.0 0.00 0.00 0.00 56 988.4
20260508041027 43 293 1.0 5.0 0.00 0.00 0.00 56 988.4
20260508040124 42 293 2.0 3.0 0.00 0.00 0.00 57 988.5
20260508035319 43 293 1.0 2.0 0.00 0.00 0.00 57 988.5
20260508034319 43 0.0 0.0 0.00 0.00 0.00 56 988.4
20260508033319 43 293 2.0 4.0 0.00 0.00 0.00 55 988.5
20260508032320 44 293 1.0 2.0 0.00 0.00 0.00 53 988.6
20260508031318 45 293 1.0 2.0 0.00 0.00 0.00 51 988.6
20260508030321 45 293 2.0 4.0 0.00 0.00 0.00 50 988.5
20260508025337 45 293 1.0 4.0 0.00 0.00 0.00 51 988.6
20260508024330 45 0.0 2.0 0.00 0.01 0.00 50 988.6
20260508023319 46 0.0 0.0 0.00 0.02 0.00 48 988.7
20260508022319 46 293 3.0 7.0 0.00 0.02 0.00 48 988.6
20260508021318 46 315 3.0 4.0 0.00 0.03 0.00 49 988.5
20260508020321 46 0.0 1.0 0.00 0.03 0.00 48 988.5
20260508015327 47 315 1.0 4.0 0.00 0.04 0.00 47 988.4
20260508014321 47 315 2.0 5.0 0.00 0.05 0.00 47 988.2
20260508013327 47 338 2.0 4.0 0.00 0.05 0.00 46 987.9
20260508012529 47 315 3.0 6.0 0.00 0.05 0.00 46 987.8
20260508012049 47 315 3.0 7.0 0.00 0.05 0.00 46 987.8
20260508011428 48 315 2.0 8.0 0.00 0.05 0.00 46 987.8
20260508010546 48 293 4.0 7.0 0.00 0.06 0.00 46 987.7
20260508005819 48 315 2.0 4.0 0.00 0.06 0.00 46 987.7
20260508004819 48 315 2.0 4.0 0.00 0.06 0.00 46 987.5
20260508003818 49 315 1.0 3.0 0.00 0.06 0.00 45 987.3
20260508002819 49 315 2.0 5.0 0.00 0.06 0.00 44 987.2
20260508001820 49 315 1.0 3.0 0.00 0.06 0.00 45 987.1
20260507235825 50 315 4.0 9.0 0.00 0.06 0.00 44 986.9
20260507234827 51 315 1.0 3.0 0.00 0.07 0.00 44 986.9
20260507233818 51 293 4.0 8.0 0.00 0.07 0.00 42 986.6
20260507232821 52 293 6.0 8.0 0.00 0.08 0.00 41 986.6
20260507231818 52 293 1.0 3.0 0.00 0.09 0.00 42 986.6
20260507230819 53 270 9.0 11.0 0.00 0.15 0.00 40 986.5
20260507225820 53 315 1.0 2.0 0.00 0.20 0.00 42 986.5
20260507224818 53 293 6.0 10.0 0.00 0.21 0.00 42 986.5
20260507223818 53 0 4.0 5.0 0.00 0.21 0.00 41 986.5
20260507222818 54 270 6.0 9.0 0.00 0.21 0.00 38 986.3
20260507221818 55 315 6.0 9.0 0.00 0.21 0.00 39 986.3
20260507220818 55 270 11.0 13.0 0.00 0.22 0.00 42 986.3
20260507215818 54 293 5.0 8.0 0.00 0.26 0.00 40 986.3
20260507214818 53 270 8.0 10.0 0.00 0.26 0.00 40 986.3
20260507213818 54 293 4.0 9.0 0.00 0.26 0.00 43 986.3
20260507212818 53 338 6.0 12.0 0.00 0.26 0.00 41 986.3
20260507211818 53 293 5.0 9.0 0.00 0.26 0.00 42 986.3
20260507210819 53 293 4.0 9.0 0.00 0.26 0.00 43 986.4
20260507205819 53 293 6.0 10.0 0.00 0.26 0.00 41 986.2
20260507204818 53 338 7.0 11.0 0.00 0.26 0.00 41 986.2
20260507203819 53 293 3.0 4.0 0.00 0.27 0.00 44 986.2
20260507202818 53 293 7.0 10.0 0.00 0.27 0.00 41 986.2
20260507201818 54 315 10.0 15.0 0.00 0.27 0.00 38 986.2
20260507200818 54 270 6.0 14.0 0.00 0.27 0.00 43 986.2
20260507195818 53 293 6.0 10.0 0.00 0.27 0.00 41 986.3
20260507194926 54 338 8.0 13.0 0.00 0.27 0.00 41 986.5
20260507194119 54 270 8.0 13.0 0.00 0.27 0.00 40 986.4
20260507193118 53 293 3.0 8.0 0.00 0.28 0.00 42 986.4
20260507192122 54 315 6.0 10.0 0.00 0.28 0.00 40 986.5
20260507191120 53 315 6.0 11.0 0.00 0.28 0.00 42 986.7
20260507190118 53 315 5.0 9.0 0.00 0.29 0.00 44 986.8
20260507185118 53 315 9.0 12.0 0.00 0.29 0.00 43 986.9
20260507184120 53 293 7.0 13.0 0.00 0.33 0.00 42 987.0
20260507183127 54 315 14.0 20.0 0.00 0.38 0.00 41 987.1
20260507182119 53 293 6.0 9.0 0.00 0.41 0.00 42 987.2
20260507181118 54 315 11.0 17.0 0.00 0.42 0.00 41 987.1
20260507180120 55 315 5.0 12.0 0.00 0.43 0.00 42 987.1
20260507175120 54 293 7.0 11.0 0.00 0.44 0.00 46 986.9
20260507174118 55 270 9.0 13.0 0.00 0.45 0.00 44 987.0
20260507173120 54 270 12.0 15.0 0.00 0.46 0.00 42 987.0
20260507172119 54 293 14.0 21.0 0.00 0.49 0.00 41 987.1
20260507171120 53 293 12.0 17.0 0.00 0.51 0.00 44 987.3
20260507170118 53 270 7.0 11.0 0.00 0.53 0.00 46 987.5
20260507165120 53 270 5.0 7.0 0.00 0.54 0.00 45 987.7
20260507164120 53 293 5.0 9.0 0.00 0.55 0.00 45 988.0
20260507163119 52 270 17.0 22.0 0.00 0.57 0.00 45 988.0
20260507162120 52 270 6.0 11.0 0.00 0.57 0.00 50 988.1
20260507161119 52 315 7.0 11.0 0.00 0.58 0.00 46 988.1
20260507160120 52 293 9.0 13.0 0.00 0.58 0.00 48 988.3
20260507155118 51 270 11.0 15.0 0.00 0.58 0.00 44 988.4
20260507154122 51 293 11.0 16.0 0.00 0.58 0.00 51 988.6
20260507153119 50 293 9.0 18.0 0.00 0.58 0.00 48 988.6
20260507152121 50 315 9.0 14.0 0.00 0.58 0.00 49 988.5
20260507151125 50 270 13.0 19.0 0.00 0.58 0.00 51 988.5
20260507150900 50 293 12.0 25.0 0.00 0.58 0.00 52 988.6
20260507150859 50 270 13.0 18.0 0.00 0.58 0.00 52 988.6
20260507150856 49 270 10.0 15.0 0.00 0.58 0.00 55 988.6
20260507150854 49 23 4.0 9.0 0.00 0.58 0.00 65 988.5
20260507141033 49 0 1.0 5.0 0.00 0.58 0.00 64 988.5
20260507140422 49 270 9.0 12.0 0.00 0.58 0.00 62 988.4
20260507135528 49 293 6.0 11.0 0.00 0.58 0.00 67 988.3
20260507134932 48 315 4.0 10.0 0.00 0.58 0.00 66 988.2
20260507134228 48 315 10.0 19.0 0.00 0.58 0.00 63 988.4
20260507133220 47 293 6.0 10.0 0.00 0.58 0.00 69 988.1
20260507132218 48 270 6.0 9.0 0.00 0.58 0.00 69 988.1
20260507131337 48 293 5.0 10.0 0.00 0.58 0.00 65 988.2
20260507130720 47 338 6.0 10.0 0.00 0.58 0.00 67 988.4
20260507125719 47 270 9.0 17.0 0.00 0.58 0.00 78 988.3
20260507124722 47 270 6.0 7.0 0.00 0.58 0.00 86 988.2
20260507123728 47 270 5.0 8.0 0.00 0.58 0.00 88 988.2
20260507122719 46 270 6.0 9.0 0.00 0.58 0.00 90 988.1
20260507121728 46 293 2.0 4.0 0.00 0.58 0.00 87 988.1
20260507120719 46 293 2.0 4.0 0.00 0.58 0.00 90 987.9
20260507115719 45 203 1.0 2.0 0.00 0.58 0.00 90 987.8
20260507114719 45 0.0 0.0 0.00 0.58 0.00 91 987.9
20260507113826 44 0.0 0.0 0.00 0.58 0.00 91 988.0
20260507112819 44 0.0 0.0 0.00 0.58 0.00 92 988.0
20260507111819 43 0.0 0.0 0.00 0.58 0.00 94 987.8
20260507110820 43 0.0 0.0 0.00 0.58 0.00 95 987.8
20260507105819 42 0.0 0.0 0.00 0.58 0.00 94 987.8
20260507104940 42 0.0 0.0 0.00 0.58 0.00 94 987.8
20260507104120 42 0.0 0.0 0.00 0.58 0.00 95 987.6
20260507103123 41 0.0 0.0 0.00 0.58 0.00 95 987.5
20260507102122 41 0.0 0.0 0.00 0.58 0.00 94 987.4
20260507101120 41 0.0 0.0 0.00 0.58 0.00 94 987.2
20260507100233 41 0.0 0.0 0.00 0.58 0.00 94 987.3
20260507095719 41 0.0 0.0 0.00 0.58 0.00 94 987.4
20260507094721 41 0.0 0.0 0.00 0.58 0.00 94 987.4
20260507093720 41 0.0 0.0 0.00 0.58 0.00 94 987.6
20260507092831 41 0.0 0.0 0.00 0.58 0.00 93 987.6
20260507092420 41 0.0 0.0 0.00 0.58 0.00 93 987.7
20260507091419 42 0.0 0.0 0.00 0.58 0.00 92 987.8
20260507090419 42 0.0 0.0 0.00 0.58 0.00 92 987.8
20260507085422 42 0.0 0.0 0.00 0.58 0.00 93 987.9
20260507084425 42 315 1.0 3.0 0.00 0.58 0.00 93 987.8
20260507083421 42 293 1.0 3.0 0.00 0.58 0.00 93 987.5
20260507082427 43 0.0 1.0 0.00 0.58 0.00 93 987.6
20260507081419 43 0.0 0.0 0.00 0.58 0.00 93 987.7
20260507080419 43 0.0 0.0 0.00 0.58 0.00 93 987.7
20260507075544 43 0.0 1.0 0.00 0.58 0.00 93 987.6
20260507075221 43 0.0 0.0 0.00 0.58 0.00 94 987.6
20260507074219 43 270 2.0 3.0 0.00 0.58 0.00 94 987.7
20260507073219 43 270 2.0 4.0 0.00 0.58 0.00 94 987.6
20260507072219 43 270 1.0 4.0 0.00 0.58 0.00 94 987.7
20260507071219 43 270 1.0 3.0 0.00 0.58 0.00 94 987.6
20260507070218 43 0.0 0.0 0.00 0.58 0.00 94 987.1
20260507065221 43 270 1.0 3.0 0.00 0.58 0.00 94 987.2
20260507064219 43 270 1.0 3.0 0.00 0.58 0.00 95 986.9
20260507063218 43 0.0 0.0 0.00 0.58 0.00 95 986.9
20260507062219 43 0.0 0.0 0.00 0.58 0.00 95 987.3
20260507061221 43 0.0 0.0 0.00 0.58 0.00 95 987.6
20260507060219 43 0.0 0.0 0.00 0.58 0.00 95 987.3
20260507055221 43 0.0 0.0 0.00 0.58 0.00 95 987.6